TimeCST,TemperatureF,Dew PointF,Humidity,Sea Level PressureIn,VisibilityMPH,Wind Direction,Wind SpeedMPH,Gust SpeedMPH,PrecipitationIn,Events,Conditions,WindDirDegrees,DateUTC
12:00 AM,82,79,87,29.97,12,East,3.5,,,,Scattered Clouds,100,2012-09-10 06:00:00
3:00 AM,82,79,87,29.91,12,East,4.6,,,,Partly Cloudy,90,2012-09-10 09:00:00
5:00 AM,82.4,77.0,84,29.94,6.2,ESE,5.8,-,N/A,,Mostly Cloudy,110,2012-09-10 11:00:00
6:00 AM,82,78,83,29.95,12,East,5.8,,,,Mostly Cloudy,100,2012-09-10 12:00:00
6:00 AM,82.4,77.0,84,29.95,6.2,East,5.8,-,N/A,,Mostly Cloudy,100,2012-09-10 12:00:00
7:00 AM,84.2,78.8,84,29.95,6.2,East,5.8,-,N/A,,Mostly Cloudy,100,2012-09-10 13:00:00
8:00 AM,87.8,77.0,70,29.98,6.2,East,11.5,-,N/A,,Scattered Clouds,100,2012-09-10 14:00:00
9:00 AM,86,77,69,29.99,12,ESE,9.2,,,,Mostly Cloudy,110,2012-09-10 15:00:00
9:00 AM,86.0,77.0,74,29.98,6.2,ESE,9.2,-,N/A,,Scattered Clouds,110,2012-09-10 15:00:00
10:00 AM,87.8,78.8,75,29.99,6.2,East,9.2,-,N/A,,Scattered Clouds,100,2012-09-10 16:00:00
11:00 AM,87.8,77.0,70,29.99,6.2,East,10.4,-,N/A,,Partly Cloudy,100,2012-09-10 17:00:00
12:00 PM,90,77,58,29.97,12,East,10.4,,,,Partly Cloudy,100,2012-09-10 18:00:00
12:00 PM,89.6,77.0,66,29.96,6.2,East,10.4,-,N/A,,Scattered Clouds,100,2012-09-10 18:00:00
1:00 PM,89.6,77.0,66,29.94,6.2,ESE,6.9,-,N/A,,Scattered Clouds,120,2012-09-10 19:00:00
2:00 PM,89.6,77.0,66,29.92,6.2,East,8.1,-,N/A,,Partly Cloudy,100,2012-09-10 20:00:00
3:00 PM,89,78,63,29.91,16,East,11.5,,,,Partly Cloudy,80,2012-09-10 21:00:00
3:00 PM,87.8,78.8,75,29.89,6.2,East,11.5,-,N/A,,Scattered Clouds,80,2012-09-10 21:00:00
4:00 PM,87.8,77.0,70,29.89,6.2,East,11.5,-,N/A,,Scattered Clouds,80,2012-09-10 22:00:00
5:00 PM,86.0,77.0,74,29.92,6.2,East,9.2,-,N/A,,Mostly Cloudy,100,2012-09-10 23:00:00
6:00 PM,85,78,73,29.96,12,East,6.9,,,,Partly Cloudy,90,2012-09-11 00:00:00
6:00 PM,84.2,77.0,79,29.95,6.2,East,6.9,-,N/A,,Scattered Clouds,90,2012-09-11 00:00:00
9:00 PM,84,77,74,29.99,12,East,9.2,,,,Mostly Cloudy,80,2012-09-11 03:00:00